Regional Weather Roundup
Issued by NWS

Home | Current Version | Previous Version | Graphics & Text | Print | Product List | Glossary On
Versions: 1 2 3 4 5 6 7 8 9 10 11 12 13 14 15 16 17 18 19 20 21 22 23 24 25 26 27 28 29 30 31 32 33 34 35 36 37 38 39 40 41 42 43 44 45 46 47 48 49 50
000
ASUS43 KLSX 260910
RWRMO

WEATHER SUMMARY FOR MISSOURI
NATIONAL WEATHER SERVICE SPRINGFIELD MO
300 AM CST SUN FEB 26 2017

NOTE: "FAIR" INDICATES FEW OR NO CLOUDS BELOW 12,000 FEET WITH NO
       SIGNIFICANT WEATHER AND/OR OBSTRUCTIONS TO VISIBILITY.
       CURRENT SKY AND/OR WEATHER CONDITIONS ARE NOT AVAILABLE FOR
       CHILLICOTHE AND FARMINGTON.

MOZ001>031-035>038-043-044-053-054-261000-
...NORTHERN AND WESTERN MISSOURI...

CITY           SKY/WX    TMP DP  RH WIND       PRES   REMARKS
KANSAS CTY INT CLEAR     34  14  43 SW14      29.97F WCI  25
KANSAS C DTWN  CLEAR     38  13  35 SW10      29.99F
LEE`S SUMMIT   PTCLDY    34  14  43 S15       29.99F WCI  24
ST JOSEPH      PTCLDY    31  16  54 SW10      29.98R WCI  22
CHILLICOTHE      N/A     32  15  49 S8        29.99F WCI  25
KIRKSVILLE     CLOUDY    29  13  51 S8        29.98F WCI  21

$$
MOZ066>068-077>081-088>096-101>105-261000-
...SOUTHWEST MISSOURI...

CITY           SKY/WX    TMP DP  RH WIND       PRES   REMARKS
SPRINGFIELD    CLEAR     28  17  63 SE10      30.05F WCI  19
JOPLIN         CLOUDY    35  18  49 SE8       30.03F WCI  29
BRANSON        CLOUDY    34  14  44 SE3       30.08F

$$
MOZ032>034-039>042-045>050-055>058-069>072-261000-
...CENTRAL MISSOURI...

CITY           SKY/WX    TMP DP  RH WIND       PRES   REMARKS
COLUMBIA       CLEAR     26  14  60 S10       30.04F WCI  16
JEFFERSON CITY CLEAR     23  15  71 SE7       30.08F WCI  15
ROLLA          CLEAR     28  13  53 S9        30.06F WCI  19
SEDALIA        CLEAR     33  14  45 S12       30.04F WCI  24
WHITEMAN AFB   CLEAR     28  18  64 S10       30.01F WCI  19
WARRENSBURG    CLEAR     32  18  55 S9        30.02S WCI  24
OSAGE BEACH    CLEAR     25  16  68 SE6       30.08F WCI  18

$$
MOZ051-052-059>065-261000-
...EAST CENTRAL MISSOURI...

CITY           SKY/WX    TMP DP  RH WIND       PRES   REMARKS
ST LOUIS INTL  CLEAR     32  14  47 S8        30.11S WCI  25
SPIRIT OF STL  CLEAR     20  16  84 CALM      30.11S
ST CHARLES     CLEAR     22  17  81 CALM      30.11S

$$
MOZ072>076-082>087-097>100-106>115-261000-
...SOUTH CENTRAL AND SOUTHEAST MISSOURI...

CITY           SKY/WX    TMP DP  RH WIND       PRES   REMARKS
CAPE GIRARDEAU CLEAR     23  17  78 CALM      30.16F
FARMINGTON     CLEAR     22  16  78 CALM      30.12F
POPLAR BLUFF   CLEAR     26  23  88 CALM      30.16F
WEST PLAINS    CLEAR     30  10  43 SE6       30.10F WCI  24

$$




USA.gov is the U.S. government's official web portal to all federal, state and local government web resources and services.